Location: Quedlinburg
(51.7921°N, 11.1414°E)
Time: 01:43:46
(UTC+02:00)

BEESAT - Pass Details

Date: 23 March 2026
Orbit: 683 x 693 km, 98.4° (Epoch: 13 April)

Event Time Altitude Azimuth Distance (km) Brightness Sun altitude
Rises 01:15:13 0° 6° (N) 3,064 ? -36.1°
Reaches altitude 10° 01:17:48 10° 353° (N) 2,143 ? -36.0°
Enters shadow 01:19:18 17° 339° (NNW) 1,706 ? -35.9°
